Tracking 28052 objects as of 24-Sep-2023
HD Live streaming from Space Station
objects crossing your sky now

COSMOS 886 DEB

Track COSMOS 886 DEB now!
10-day predictions


NORAD ID: 9827
Int'l Code: 1976-126AP
Perigee: 497.7 km
Apogee: 929.2 km
Inclination: 65.8 °
Period: 98.9 minutes
Semi major axis: 7084 km
RCS: 0.0538 m2 (small)
Launch date: December 27, 1976
Source: Commonwealth of Independent States (former USSR) (CIS)
Launch site: TYURATAM MISSILE AND SPACE COMPLEX (TTMTR)

Note: This is SATELLITE DEBRIS
Your satellite tracking list
Your tracking list is empty




NASA's NSSDC Master Catalog

Two Line Element Set (TLE):
1  9827U 76126AP  23267.20347394  .00017423  00000-0  21084-2 0  9994
2  9827  65.7879 208.4204 0304558 155.4178 206.1803 14.55929999317436
Source of the keplerian elements: AFSPC